TimeCDT,TemperatureF,Dew PointF,Humidity,Sea Level PressureIn,VisibilityMPH,Wind Direction,Wind SpeedMPH,Gust SpeedMPH,PrecipitationIn,Events,Conditions,WindDirDegrees,DateUTC
12:56 AM,71.1,64.0,78,30.01,10.0,Calm,Calm,-,N/A,,Clear,0,2013-09-04 05:56:00
1:56 AM,64.9,63.0,93,30.02,10.0,Calm,Calm,-,N/A,,Clear,0,2013-09-04 06:56:00
2:56 AM,64.9,63.0,93,30.03,10.0,Calm,Calm,-,N/A,,Clear,0,2013-09-04 07:56:00
3:56 AM,64.9,64.0,97,30.03,10.0,Calm,Calm,-,N/A,,Clear,0,2013-09-04 08:56:00
4:56 AM,63.0,62.1,97,30.04,9.0,Calm,Calm,-,N/A,,Mostly Cloudy,0,2013-09-04 09:56:00
5:56 AM,63.0,61.0,93,30.05,10.0,Calm,Calm,-,N/A,,Mostly Cloudy,0,2013-09-04 10:56:00
6:56 AM,62.1,61.0,96,30.07,9.0,Calm,Calm,-,N/A,,Mostly Cloudy,0,2013-09-04 11:56:00
7:56 AM,64.0,62.1,93,30.09,9.0,NE,3.5,-,N/A,,Mostly Cloudy,40,2013-09-04 12:56:00
8:56 AM,71.1,63.0,75,30.09,10.0,SSE,4.6,-,N/A,,Mostly Cloudy,160,2013-09-04 13:56:00
9:56 AM,73.0,63.0,71,30.09,10.0,South,4.6,-,N/A,,Mostly Cloudy,180,2013-09-04 14:56:00
10:56 AM,77.0,63.0,62,30.10,10.0,Calm,Calm,-,N/A,,Scattered Clouds,0,2013-09-04 15:56:00
11:56 AM,81.0,63.0,54,30.11,10.0,SSW,8.1,-,N/A,,Mostly Cloudy,200,2013-09-04 16:56:00
12:56 PM,82.9,64.9,54,30.09,10.0,SSW,8.1,-,N/A,,Scattered Clouds,210,2013-09-04 17:56:00
1:56 PM,84.9,64.0,49,30.07,10.0,SW,8.1,-,N/A,,Scattered Clouds,220,2013-09-04 18:56:00
2:56 PM,86.0,63.0,46,30.06,10.0,SSW,8.1,-,N/A,,Scattered Clouds,200,2013-09-04 19:56:00
3:56 PM,87.1,61.0,41,30.06,10.0,SE,4.6,-,N/A,,Mostly Cloudy,140,2013-09-04 20:56:00
4:56 PM,86.0,61.0,43,30.05,10.0,SSE,9.2,-,N/A,,Mostly Cloudy,150,2013-09-04 21:56:00
5:56 PM,84.0,62.1,47,30.06,10.0,SSE,9.2,-,N/A,,Mostly Cloudy,160,2013-09-04 22:56:00
6:56 PM,81.0,62.1,52,30.06,10.0,South,8.1,-,N/A,,Mostly Cloudy,170,2013-09-04 23:56:00
7:56 PM,80.1,62.1,54,30.06,10.0,SSE,6.9,-,N/A,,Mostly Cloudy,160,2013-09-05 00:56:00
8:56 PM,80.1,64.9,60,30.08,10.0,SSE,8.1,-,N/A,,Mostly Cloudy,150,2013-09-05 01:56:00
9:56 PM,77.0,66.0,69,30.09,10.0,South,5.8,-,N/A,,Overcast,170,2013-09-05 02:56:00
10:56 PM,75.9,64.9,69,30.10,10.0,South,5.8,-,N/A,,Overcast,170,2013-09-05 03:56:00
11:56 PM,75.0,64.9,71,30.10,10.0,South,5.8,-,N/A,,Overcast,180,2013-09-05 04:56:00